Location: Binningen
(47.7924°N, 8.7261°E)
Time: 19:20:38
(UTC+00:00)

Cosmos 1607 - Pass Details

Date: 17 May 2021
Orbit: 909 x 993 km, 65.0° (Epoch: 21 June)

Event Time Altitude Azimuth Distance (km) Brightness Sun altitude
Exits shadow 22:22:48 13° 225° (SW) 2,497 5.9 -21.4°
Maximum altitude 22:28:34 74° 310° (NW) 1,033 4.2 -21.6°
Drops below altitude 10° 22:35:05 10° 36° (NE) 2,765 6.9 -21.9°
Sets 22:37:41 0° 38° (NE) 3,714 7.6 -21.9°
